Orbital Elements
Epoch 2011 Nov. 15.0 TT = JDT 2455880.5
T 2011 Nov. 21.93449 TT MPC
q 2.4501087 (2000.0) P Q
n 0.12778388 Peri. 346.54813 -0.87263426 +0.40138190
a 3.9037799 Node 220.94655 -0.39953529 -0.91434147
e 0.3723753 Incl. 25.12038 -0.28085762 +0.05359330
P 7.71
From 92 observations 2004 Apr. 22-2012 July 18, mean residual 0".6.
|